<?xml version="1.0" encoding="UTF-8" standalone="no" ?>
<gpx xmlns="http://www.topografix.com/GPX/1/1" xmlns:xsi="http://www.w3.org/2001/XMLSchema-instance" xsi:schemaLocation="http://www.topografix.com/GPX/1/1 http://www.topografix.com/GPX/1/1/gpx.xsd" version="1.1" creator="VisuGPX - https://www.visugpx.com">
  <metadata>
    <name>Chemin Jéricho complet</name>
  </metadata>
  <wpt lat="47.86715" lon="0.56593">
    <ele>151</ele>
    <name><![CDATA[Départ place St Anne]]></name>
  </wpt>
  <wpt lat="47.87343" lon="0.58961">
    <ele>107.3</ele>
    <name><![CDATA[Parcour 8.5 Kms]]></name>
  </wpt>
  <wpt lat="47.8664" lon="0.59201">
    <ele>104.1</ele>
    <name><![CDATA[Parcour 10 Kms]]></name>
  </wpt>
  <wpt lat="47.86355" lon="0.5817">
    <ele>152</ele>
    <name><![CDATA[Parcour 10 Kms]]></name>
  </wpt>
  <wpt lat="47.86826" lon="0.57701">
    <ele>157.9</ele>
    <name><![CDATA[Parcour 8.5 Kms]]></name>
  </wpt>
  <wpt lat="47.86715" lon="0.566">
    <ele>150.9</ele>
    <name><![CDATA[Arrivée place St Anne]]></name>
  </wpt>
  <wpt lat="47.86715" lon="0.56593">
    <ele>151</ele>
    <name><![CDATA[Départ place St Anne]]></name>
  </wpt>
  <wpt lat="47.87332" lon="0.58965">
    <ele>107.2</ele>
    <name><![CDATA[Parcour 8.5 Kms]]></name>
  </wpt>
  <wpt lat="47.8664" lon="0.59201">
    <ele>104.1</ele>
    <name><![CDATA[Parcour 10 Kms]]></name>
  </wpt>
  <wpt lat="47.85941" lon="0.60275">
    <ele>150.7</ele>
    <name><![CDATA[Parcour 12.5 Kms]]></name>
  </wpt>
  <wpt lat="47.85634" lon="0.58751">
    <ele>97.6</ele>
    <name><![CDATA[Parcour 12.5 Kms]]></name>
  </wpt>
  <wpt lat="47.86281" lon="0.57874">
    <ele>150.6</ele>
    <name><![CDATA[Parcour 10 Kms]]></name>
  </wpt>
  <wpt lat="47.86826" lon="0.57701">
    <ele>157.9</ele>
    <name><![CDATA[Parcour 8.5 Kms]]></name>
  </wpt>
  <wpt lat="47.86715" lon="0.566">
    <ele>150.9</ele>
    <name><![CDATA[Arrivée place St Anne]]></name>
  </wpt>
  <trk>
    <name><![CDATA[Chemin Jéricho 10 Kms]]></name>
    <extensions>
      <line xmlns="http://www.topografix.com/GPX/gpx_style/0/2">
        <color>0000FF</color>
        <width>4</width>
      </line>
    </extensions>
    <trkseg>
      <trkpt lat="47.86715" lon="0.56593">
        <ele>151</ele>
        <time>2021-09-17T14:21:38+02:00</time>
      </trkpt>
      <trkpt lat="47.86712" lon="0.56578">
        <ele>151</ele>
        <time>2021-09-17T14:21:43+02:00</time>
      </trkpt>
      <trkpt lat="47.86556" lon="0.56342">
        <ele>153</ele>
        <time>2021-09-17T14:21:48+02:00</time>
      </trkpt>
      <trkpt lat="47.86504" lon="0.55914">
        <ele>154</ele>
        <time>2021-09-17T14:21:53+02:00</time>
      </trkpt>
      <trkpt lat="47.86493" lon="0.5587">
        <ele>155</ele>
        <time>2021-09-17T14:21:58+02:00</time>
      </trkpt>
      <trkpt lat="47.8648" lon="0.55834">
        <ele>155</ele>
        <time>2021-09-17T14:22:03+02:00</time>
      </trkpt>
      <trkpt lat="47.86492" lon="0.55806">
        <ele>156</ele>
        <time>2021-09-17T14:22:08+02:00</time>
      </trkpt>
      <trkpt lat="47.86496" lon="0.55744">
        <ele>156</ele>
        <time>2021-09-17T14:22:13+02:00</time>
      </trkpt>
      <trkpt lat="47.86665" lon="0.55757">
        <ele>155</ele>
        <time>2021-09-17T14:22:18+02:00</time>
      </trkpt>
      <trkpt lat="47.86942" lon="0.55643">
        <ele>154</ele>
        <time>2021-09-17T14:22:23+02:00</time>
      </trkpt>
      <trkpt lat="47.87155" lon="0.55538">
        <ele>159</ele>
        <time>2021-09-17T14:22:28+02:00</time>
      </trkpt>
      <trkpt lat="47.8717" lon="0.55532">
        <ele>160</ele>
        <time>2021-09-17T14:22:33+02:00</time>
      </trkpt>
      <trkpt lat="47.87185" lon="0.55531">
        <ele>159</ele>
        <time>2021-09-17T14:22:38+02:00</time>
      </trkpt>
      <trkpt lat="47.87204" lon="0.55529">
        <ele>159</ele>
        <time>2021-09-17T14:22:43+02:00</time>
      </trkpt>
      <trkpt lat="47.87222" lon="0.55536">
        <ele>159</ele>
        <time>2021-09-17T14:22:48+02:00</time>
      </trkpt>
      <trkpt lat="47.87231" lon="0.55551">
        <ele>159</ele>
        <time>2021-09-17T14:22:53+02:00</time>
      </trkpt>
      <trkpt lat="47.8724" lon="0.55575">
        <ele>160</ele>
        <time>2021-09-17T14:22:58+02:00</time>
      </trkpt>
      <trkpt lat="47.87482" lon="0.55653">
        <ele>159</ele>
        <time>2021-09-17T14:23:03+02:00</time>
      </trkpt>
      <trkpt lat="47.87598" lon="0.5568">
        <ele>154</ele>
        <time>2021-09-17T14:23:08+02:00</time>
      </trkpt>
      <trkpt lat="47.87681" lon="0.55678">
        <ele>151</ele>
        <time>2021-09-17T14:23:13+02:00</time>
      </trkpt>
      <trkpt lat="47.87731" lon="0.55666">
        <ele>149</ele>
        <time>2021-09-17T14:23:18+02:00</time>
      </trkpt>
      <trkpt lat="47.87803" lon="0.55666">
        <ele>145</ele>
        <time>2021-09-17T14:23:23+02:00</time>
      </trkpt>
      <trkpt lat="47.8794" lon="0.55548">
        <ele>151</ele>
        <time>2021-09-17T14:23:28+02:00</time>
      </trkpt>
      <trkpt lat="47.87962" lon="0.55547">
        <ele>152</ele>
        <time>2021-09-17T14:23:33+02:00</time>
      </trkpt>
      <trkpt lat="47.87988" lon="0.55552">
        <ele>153</ele>
        <time>2021-09-17T14:23:38+02:00</time>
      </trkpt>
      <trkpt lat="47.88006" lon="0.55566">
        <ele>154</ele>
        <time>2021-09-17T14:23:43+02:00</time>
      </trkpt>
      <trkpt lat="47.88059" lon="0.55612">
        <ele>155</ele>
        <time>2021-09-17T14:23:48+02:00</time>
      </trkpt>
      <trkpt lat="47.881" lon="0.5567">
        <ele>154</ele>
        <time>2021-09-17T14:23:53+02:00</time>
      </trkpt>
      <trkpt lat="47.88273" lon="0.55846">
        <ele>153</ele>
        <time>2021-09-17T14:23:58+02:00</time>
      </trkpt>
      <trkpt lat="47.88319" lon="0.55909">
        <ele>153</ele>
        <time>2021-09-17T14:24:03+02:00</time>
      </trkpt>
      <trkpt lat="47.88345" lon="0.5593">
        <ele>153</ele>
        <time>2021-09-17T14:24:08+02:00</time>
      </trkpt>
      <trkpt lat="47.88379" lon="0.55947">
        <ele>153</ele>
        <time>2021-09-17T14:24:13+02:00</time>
      </trkpt>
      <trkpt lat="47.88462" lon="0.55951">
        <ele>155</ele>
        <time>2021-09-17T14:24:18+02:00</time>
      </trkpt>
      <trkpt lat="47.88534" lon="0.55951">
        <ele>156</ele>
        <time>2021-09-17T14:24:23+02:00</time>
      </trkpt>
      <trkpt lat="47.88598" lon="0.55977">
        <ele>156</ele>
        <time>2021-09-17T14:24:28+02:00</time>
      </trkpt>
      <trkpt lat="47.88653" lon="0.56015">
        <ele>159</ele>
        <time>2021-09-17T14:24:33+02:00</time>
      </trkpt>
      <trkpt lat="47.88724" lon="0.56033">
        <ele>160</ele>
        <time>2021-09-17T14:24:38+02:00</time>
      </trkpt>
      <trkpt lat="47.88639" lon="0.56096">
        <ele>159</ele>
        <time>2021-09-17T14:24:43+02:00</time>
      </trkpt>
      <trkpt lat="47.88687" lon="0.56363">
        <ele>160</ele>
        <time>2021-09-17T14:24:48+02:00</time>
      </trkpt>
      <trkpt lat="47.88698" lon="0.56385">
        <ele>160</ele>
        <time>2021-09-17T14:24:53+02:00</time>
      </trkpt>
      <trkpt lat="47.88694" lon="0.56555">
        <ele>160</ele>
        <time>2021-09-17T14:24:58+02:00</time>
      </trkpt>
      <trkpt lat="47.88702" lon="0.56679">
        <ele>159</ele>
        <time>2021-09-17T14:25:03+02:00</time>
      </trkpt>
      <trkpt lat="47.887" lon="0.56763">
        <ele>157</ele>
        <time>2021-09-17T14:25:08+02:00</time>
      </trkpt>
      <trkpt lat="47.88694" lon="0.5683">
        <ele>156</ele>
        <time>2021-09-17T14:25:13+02:00</time>
      </trkpt>
      <trkpt lat="47.88698" lon="0.5689">
        <ele>156</ele>
        <time>2021-09-17T14:25:18+02:00</time>
      </trkpt>
      <trkpt lat="47.8871" lon="0.56981">
        <ele>154</ele>
        <time>2021-09-17T14:25:23+02:00</time>
      </trkpt>
      <trkpt lat="47.88717" lon="0.57027">
        <ele>154</ele>
        <time>2021-09-17T14:25:28+02:00</time>
      </trkpt>
      <trkpt lat="47.88766" lon="0.57161">
        <ele>155</ele>
        <time>2021-09-17T14:25:33+02:00</time>
      </trkpt>
      <trkpt lat="47.88713" lon="0.57212">
        <ele>155</ele>
        <time>2021-09-17T14:25:38+02:00</time>
      </trkpt>
      <trkpt lat="47.88628" lon="0.57268">
        <ele>153</ele>
        <time>2021-09-17T14:25:43+02:00</time>
      </trkpt>
      <trkpt lat="47.88598" lon="0.57301">
        <ele>150</ele>
        <time>2021-09-17T14:25:48+02:00</time>
      </trkpt>
      <trkpt lat="47.88565" lon="0.57398">
        <ele>148</ele>
        <time>2021-09-17T14:25:53+02:00</time>
      </trkpt>
      <trkpt lat="47.88405" lon="0.57306">
        <ele>132</ele>
        <time>2021-09-17T14:25:58+02:00</time>
      </trkpt>
      <trkpt lat="47.88344" lon="0.57247">
        <ele>132</ele>
        <time>2021-09-17T14:26:03+02:00</time>
      </trkpt>
      <trkpt lat="47.88151" lon="0.5718">
        <ele>145</ele>
        <time>2021-09-17T14:26:08+02:00</time>
      </trkpt>
      <trkpt lat="47.88093" lon="0.57161">
        <ele>149</ele>
        <time>2021-09-17T14:26:13+02:00</time>
      </trkpt>
      <trkpt lat="47.87998" lon="0.57161">
        <ele>151</ele>
        <time>2021-09-17T14:26:18+02:00</time>
      </trkpt>
      <trkpt lat="47.87974" lon="0.57159">
        <ele>152</ele>
        <time>2021-09-17T14:26:23+02:00</time>
      </trkpt>
      <trkpt lat="47.87903" lon="0.57085">
        <ele>154</ele>
        <time>2021-09-17T14:26:28+02:00</time>
      </trkpt>
      <trkpt lat="47.87848" lon="0.57018">
        <ele>155</ele>
        <time>2021-09-17T14:26:33+02:00</time>
      </trkpt>
      <trkpt lat="47.87749" lon="0.56875">
        <ele>156</ele>
        <time>2021-09-17T14:26:38+02:00</time>
      </trkpt>
      <trkpt lat="47.87729" lon="0.56921">
        <ele>157</ele>
        <time>2021-09-17T14:26:43+02:00</time>
      </trkpt>
      <trkpt lat="47.87718" lon="0.56981">
        <ele>157</ele>
        <time>2021-09-17T14:26:48+02:00</time>
      </trkpt>
      <trkpt lat="47.87688" lon="0.57076">
        <ele>158</ele>
        <time>2021-09-17T14:26:53+02:00</time>
      </trkpt>
      <trkpt lat="47.87637" lon="0.5716">
        <ele>158</ele>
        <time>2021-09-17T14:26:58+02:00</time>
      </trkpt>
      <trkpt lat="47.87458" lon="0.57569">
        <ele>155</ele>
        <time>2021-09-17T14:27:03+02:00</time>
      </trkpt>
      <trkpt lat="47.8748" lon="0.57694">
        <ele>153</ele>
        <time>2021-09-17T14:27:08+02:00</time>
      </trkpt>
      <trkpt lat="47.87484" lon="0.57743">
        <ele>152</ele>
        <time>2021-09-17T14:27:13+02:00</time>
      </trkpt>
      <trkpt lat="47.87493" lon="0.57859">
        <ele>150</ele>
        <time>2021-09-17T14:27:18+02:00</time>
      </trkpt>
      <trkpt lat="47.87521" lon="0.58169">
        <ele>149</ele>
        <time>2021-09-17T14:27:23+02:00</time>
      </trkpt>
      <trkpt lat="47.87532" lon="0.58225">
        <ele>147</ele>
        <time>2021-09-17T14:27:28+02:00</time>
      </trkpt>
      <trkpt lat="47.8752" lon="0.58282">
        <ele>146</ele>
        <time>2021-09-17T14:27:33+02:00</time>
      </trkpt>
      <trkpt lat="47.87532" lon="0.58352">
        <ele>143</ele>
        <time>2021-09-17T14:27:38+02:00</time>
      </trkpt>
      <trkpt lat="47.87528" lon="0.5838">
        <ele>142</ele>
        <time>2021-09-17T14:27:43+02:00</time>
      </trkpt>
      <trkpt lat="47.87499" lon="0.58469">
        <ele>140</ele>
        <time>2021-09-17T14:27:48+02:00</time>
      </trkpt>
      <trkpt lat="47.87458" lon="0.58599">
        <ele>128</ele>
        <time>2021-09-17T14:27:53+02:00</time>
      </trkpt>
      <trkpt lat="47.87445" lon="0.58623">
        <ele>125</ele>
        <time>2021-09-17T14:27:58+02:00</time>
      </trkpt>
      <trkpt lat="47.87387" lon="0.58689">
        <ele>118</ele>
        <time>2021-09-17T14:28:03+02:00</time>
      </trkpt>
      <trkpt lat="47.87394" lon="0.5881">
        <ele>112</ele>
        <time>2021-09-17T14:28:08+02:00</time>
      </trkpt>
      <trkpt lat="47.87363" lon="0.58857">
        <ele>111</ele>
        <time>2021-09-17T14:28:13+02:00</time>
      </trkpt>
      <trkpt lat="47.8739" lon="0.58923">
        <ele>109</ele>
        <time>2021-09-17T14:28:18+02:00</time>
      </trkpt>
      <trkpt lat="47.87343" lon="0.58961">
        <ele>107</ele>
        <time>2021-09-17T14:28:23+02:00</time>
      </trkpt>
      <trkpt lat="47.87251" lon="0.59012">
        <ele>102</ele>
        <time>2021-09-17T14:28:28+02:00</time>
      </trkpt>
      <trkpt lat="47.8717" lon="0.59054">
        <ele>103</ele>
        <time>2021-09-17T14:28:33+02:00</time>
      </trkpt>
      <trkpt lat="47.87032" lon="0.59103">
        <ele>105</ele>
        <time>2021-09-17T14:28:38+02:00</time>
      </trkpt>
      <trkpt lat="47.86969" lon="0.59114">
        <ele>106</ele>
        <time>2021-09-17T14:28:43+02:00</time>
      </trkpt>
      <trkpt lat="47.86801" lon="0.59087">
        <ele>101</ele>
        <time>2021-09-17T14:28:48+02:00</time>
      </trkpt>
      <trkpt lat="47.86762" lon="0.59084">
        <ele>100</ele>
        <time>2021-09-17T14:28:53+02:00</time>
      </trkpt>
      <trkpt lat="47.86764" lon="0.5912">
        <ele>100</ele>
        <time>2021-09-17T14:28:58+02:00</time>
      </trkpt>
      <trkpt lat="47.8676" lon="0.5915">
        <ele>100</ele>
        <time>2021-09-17T14:29:03+02:00</time>
      </trkpt>
      <trkpt lat="47.8675" lon="0.59162">
        <ele>100</ele>
        <time>2021-09-17T14:29:08+02:00</time>
      </trkpt>
      <trkpt lat="47.86733" lon="0.59167">
        <ele>100</ele>
        <time>2021-09-17T14:29:13+02:00</time>
      </trkpt>
      <trkpt lat="47.8664" lon="0.59201">
        <ele>104</ele>
        <time>2021-09-17T14:29:18+02:00</time>
      </trkpt>
      <trkpt lat="47.86618" lon="0.59229">
        <ele>107</ele>
        <time>2021-09-17T14:29:23+02:00</time>
      </trkpt>
      <trkpt lat="47.86561" lon="0.59088">
        <ele>97</ele>
        <time>2021-09-17T14:29:28+02:00</time>
      </trkpt>
      <trkpt lat="47.86513" lon="0.58896">
        <ele>97</ele>
        <time>2021-09-17T14:29:33+02:00</time>
      </trkpt>
      <trkpt lat="47.86467" lon="0.5891">
        <ele>97</ele>
        <time>2021-09-17T14:29:38+02:00</time>
      </trkpt>
      <trkpt lat="47.86475" lon="0.58792">
        <ele>107</ele>
        <time>2021-09-17T14:29:43+02:00</time>
      </trkpt>
      <trkpt lat="47.86501" lon="0.5871">
        <ele>115</ele>
        <time>2021-09-17T14:29:48+02:00</time>
      </trkpt>
      <trkpt lat="47.86433" lon="0.587">
        <ele>122</ele>
        <time>2021-09-17T14:29:53+02:00</time>
      </trkpt>
      <trkpt lat="47.86353" lon="0.58706">
        <ele>128</ele>
        <time>2021-09-17T14:29:58+02:00</time>
      </trkpt>
      <trkpt lat="47.86332" lon="0.58692">
        <ele>132</ele>
        <time>2021-09-17T14:30:03+02:00</time>
      </trkpt>
      <trkpt lat="47.86324" lon="0.58667">
        <ele>135</ele>
        <time>2021-09-17T14:30:08+02:00</time>
      </trkpt>
      <trkpt lat="47.86326" lon="0.58556">
        <ele>142</ele>
        <time>2021-09-17T14:30:13+02:00</time>
      </trkpt>
      <trkpt lat="47.8635" lon="0.58445">
        <ele>149</ele>
        <time>2021-09-17T14:30:18+02:00</time>
      </trkpt>
      <trkpt lat="47.86364" lon="0.58379">
        <ele>151</ele>
        <time>2021-09-17T14:30:23+02:00</time>
      </trkpt>
      <trkpt lat="47.86354" lon="0.58284">
        <ele>151</ele>
        <time>2021-09-17T14:30:28+02:00</time>
      </trkpt>
      <trkpt lat="47.86355" lon="0.5817">
        <ele>152</ele>
        <time>2021-09-17T14:30:33+02:00</time>
      </trkpt>
      <trkpt lat="47.86357" lon="0.58045">
        <ele>151</ele>
        <time>2021-09-17T14:30:38+02:00</time>
      </trkpt>
      <trkpt lat="47.86341" lon="0.57956">
        <ele>151</ele>
        <time>2021-09-17T14:30:43+02:00</time>
      </trkpt>
      <trkpt lat="47.86291" lon="0.57867">
        <ele>151</ele>
        <time>2021-09-17T14:30:48+02:00</time>
      </trkpt>
      <trkpt lat="47.86485" lon="0.57616">
        <ele>155</ele>
        <time>2021-09-17T14:30:53+02:00</time>
      </trkpt>
      <trkpt lat="47.86573" lon="0.57661">
        <ele>156</ele>
        <time>2021-09-17T14:30:58+02:00</time>
      </trkpt>
      <trkpt lat="47.86663" lon="0.57705">
        <ele>156</ele>
        <time>2021-09-17T14:31:03+02:00</time>
      </trkpt>
      <trkpt lat="47.86783" lon="0.57703">
        <ele>158</ele>
        <time>2021-09-17T14:31:08+02:00</time>
      </trkpt>
      <trkpt lat="47.86826" lon="0.57701">
        <ele>158</ele>
        <time>2021-09-17T14:31:13+02:00</time>
      </trkpt>
      <trkpt lat="47.86814" lon="0.57665">
        <ele>158</ele>
        <time>2021-09-17T14:31:18+02:00</time>
      </trkpt>
      <trkpt lat="47.86794" lon="0.57563">
        <ele>155</ele>
        <time>2021-09-17T14:31:23+02:00</time>
      </trkpt>
      <trkpt lat="47.86772" lon="0.57461">
        <ele>154</ele>
        <time>2021-09-17T14:31:28+02:00</time>
      </trkpt>
      <trkpt lat="47.86778" lon="0.57353">
        <ele>153</ele>
        <time>2021-09-17T14:31:33+02:00</time>
      </trkpt>
      <trkpt lat="47.86792" lon="0.57245">
        <ele>150</ele>
        <time>2021-09-17T14:31:38+02:00</time>
      </trkpt>
      <trkpt lat="47.868" lon="0.5712">
        <ele>142</ele>
        <time>2021-09-17T14:31:43+02:00</time>
      </trkpt>
      <trkpt lat="47.8681" lon="0.57061">
        <ele>139</ele>
        <time>2021-09-17T14:31:48+02:00</time>
      </trkpt>
      <trkpt lat="47.8681" lon="0.57038">
        <ele>138</ele>
        <time>2021-09-17T14:31:53+02:00</time>
      </trkpt>
      <trkpt lat="47.86776" lon="0.56813">
        <ele>137</ele>
        <time>2021-09-17T14:31:58+02:00</time>
      </trkpt>
      <trkpt lat="47.86763" lon="0.56753">
        <ele>141</ele>
        <time>2021-09-17T14:32:03+02:00</time>
      </trkpt>
      <trkpt lat="47.86745" lon="0.56707">
        <ele>145</ele>
        <time>2021-09-17T14:32:08+02:00</time>
      </trkpt>
      <trkpt lat="47.86729" lon="0.56648">
        <ele>149</ele>
        <time>2021-09-17T14:32:13+02:00</time>
      </trkpt>
      <trkpt lat="47.86714" lon="0.56642">
        <ele>150</ele>
        <time>2021-09-17T14:32:18+02:00</time>
      </trkpt>
      <trkpt lat="47.86715" lon="0.566">
        <ele>151</ele>
        <time>2021-09-17T14:32:23+02:00</time>
      </trkpt>
    </trkseg>
  </trk>
</gpx>